Rawlins, WY

3:26 AM MDT on April 30, 2017 (GMT -0600)
Rawlins Municipal

Weather History for KRWL - February, 2013

Change the Weather History Date:

Tuesday, February 19, 2013

  Actual Average Record
Temperature  
Mean Temperature 23 °F 24 °F  
Max Temperature 38 °F 35 °F 56 °F (1958)
Min Temperature 7 °F 14 °F -10 °F (2006)
Degree Days  
Heating Degree Days 42 41  
Month to date heating degree days 797 805  
Since 1 July heating degree days 5163 5604  
Cooling Degree Days 0 0  
Month to date cooling degree days 0 0  
Year to date cooling degree days 0 0  
Moisture  
Dew Point 5 °F    
Average Humidity 51    
Maximum Humidity 74    
Minimum Humidity 27    
Precipitation  
Precipitation 0.00 in 0.02 in 0.18 in (1953)
Month to date precipitation 0.14 0.27  
Year to date precipitation 0.31 0.63  
Sea Level Pressure  
Sea Level Pressure 29.92 in    
Wind  
Wind Speed 7 mph (South)    
Max Wind Speed 25 mph    
Max Gust Speed 32 mph    
Visibility 10 miles    
Events      
T = Trace of Precipitation, MM = Missing Value Source: NWS Daily Summary

Daily Weather History Graph

Daily Weather History Graph

Search for Another Location

Airport or City:

Trip Planner

Search our weather history database for the weather conditions in past years. The results will help you decide how hot, cold, wet, or windy it might be!

Date:

Astronomy

Feb. 19, 2013 Rise Set
Actual Time 6:58 AM MST 5:47 PM MST
Civil Twilight 6:30 AM MST 6:15 PM MST
Nautical Twilight 5:57 AM MST 6:48 PM MST
Astronomical Twilight 5:25 AM MST 7:20 PM MST
Moon 12:18 PM MST (2/19) 2:35 AM MST (2/19)
Length of Visible Light 11h 45m
Length of Day
10h 49m
Waxing Gibbous, 68% of the Moon is Illuminated
Feb 19
Waxing Gibbous
Feb 25
Full
Mar 4
Last Quarter
Mar 11
New
Mar 19
First Quarter

Hourly Weather History & Observations

Time (MST) Temp. Windchill Dew Point Humidity Pressure Visibility Wind Dir Wind Speed Gust Speed Precip Events Conditions
1:53 AM 16.0 °F 4.4 °F 1.9 °F 54% 30.10 in 10.0 mi SSW 9.2 mph - N/A   Clear
2:53 AM 18.0 °F 7.7 °F 1.0 °F 48% 30.07 in 10.0 mi SW 8.1 mph - N/A   Clear
3:53 AM 14.0 °F - -0.0 °F 54% 30.08 in 10.0 mi Calm Calm - N/A   Clear
4:53 AM 12.0 °F 5.9 °F -0.0 °F 59% 30.09 in 10.0 mi NE 3.5 mph - N/A   Clear
5:53 AM 12.9 °F 6.9 °F -0.0 °F 56% 30.09 in 10.0 mi ENE 3.5 mph - N/A   Clear
6:53 AM 9.0 °F 0.6 °F -2.0 °F 61% 30.10 in 10.0 mi North 4.6 mph - N/A   Clear
7:53 AM 16.0 °F - 1.9 °F 54% 30.05 in 10.0 mi Calm Calm - N/A   Clear
8:53 AM 24.1 °F 16.0 °F 1.9 °F 38% 30.01 in 10.0 mi Variable 6.9 mph - N/A   Clear
9:53 AM 30.0 °F 26.5 °F 1.9 °F 30% 29.98 in 10.0 mi Variable 3.5 mph - N/A   Clear
11:53 AM 35.1 °F 23.8 °F 5.0 °F 28% 29.90 in 10.0 mi SSW 20.7 mph 26.5 mph N/A   Clear
12:53 PM 36.0 °F 26.7 °F 6.1 °F 29% 29.84 in 10.0 mi SSW 15.0 mph 29.9 mph N/A   Clear
1:53 PM 36.0 °F 26.3 °F 6.1 °F 29% 29.83 in 10.0 mi SSW 16.1 mph 31.1 mph N/A   Clear
2:53 PM 37.9 °F 27.6 °F 9.0 °F 30% 29.79 in 10.0 mi SSW 20.7 mph 29.9 mph N/A   Clear
3:53 PM 37.0 °F 28.1 °F 10.0 °F 33% 29.80 in 10.0 mi SSW 15.0 mph 24.2 mph N/A   Clear
5:53 PM 30.0 °F 22.4 °F 10.9 °F 45% 29.83 in 10.0 mi South 8.1 mph - N/A   Clear
6:53 PM 27.0 °F - 10.0 °F 49% 29.88 in 10.0 mi Calm Calm - N/A   Clear
7:53 PM 25.0 °F - 10.0 °F 53% 29.84 in 10.0 mi Calm Calm - N/A   Clear
8:53 PM 27.0 °F - 10.0 °F 49% 29.77 in 10.0 mi Calm Calm - N/A   Clear
9:53 PM 26.1 °F - 10.0 °F 51% 29.75 in 10.0 mi Calm Calm - N/A   Clear
10:53 PM 18.0 °F - 10.0 °F 71% 29.76 in 10.0 mi Calm Calm - N/A   Clear
11:53 PM 21.0 °F 14.6 °F 10.9 °F 65% 29.72 in 10.0 mi NE 4.6 mph - N/A   Clear